Location: Newark
(40.3500°N, 15.2333°E)
Time: 14:52:52
(UTC+00:00)

NOAA 15 - Pass Details

Date: 27 February 2020
Orbit: 797 x 813 km, 98.7° (Epoch: 08 April)

Event Time Altitude Azimuth Distance (km) Brightness Sun altitude
Rises 18:46:32 0° 206° (SSW) 3,320 8.0 -23.4°
Reaches altitude 10° 18:49:34 10° 224° (SW) 2,395 7.5 -23.9°
Maximum altitude 18:53:12 19° 267° (W) 1,865 7.3 -24.6°
Drops below altitude 10° 18:56:53 10° 311° (NW) 2,408 7.8 -25.3°
Sets 18:59:58 0° 330° (NNW) 3,344 8.4 -25.9°
